This is the latest recevied weather packets stored in our database for station/object YD2CLX-13. If no packets are shown the sender has not sent any weather packets the latest 10 day(s).
| Time | Temp. | Humidity | Pressure | Rain* | Wind** | Luminosity | Snow |
|---|---|---|---|---|---|---|---|
| 1777521928 | 13.33° C | 67% | 798.3 hPa | 0 mm | - | - | - |
| 1777520696 | 12.78° C | 67% | 798.6 hPa | 0 mm | - | - | - |
| 1777520081 | 12.78° C | 68% | 798.7 hPa | 0 mm | - | - | - |
| 1777519466 | 12.22° C | 67% | 798.8 hPa | 0 mm | - | - | - |
| 1777518850 | 13.33° C | 68% | 798.8 hPa | 0 mm | - | - | - |
| 1777518233 | 13.33° C | 67% | 798.9 hPa | 0 mm | - | - | - |
| 1777517616 | 12.22° C | 67% | 799 hPa | 0 mm | - | - | - |
| 1777517000 | 13.33° C | 67% | 799 hPa | 0 mm | - | - | - |
| 1777516386 | 13.33° C | 67% | 799 hPa | 0 mm | - | - | - |
| 1777515769 | 12.22° C | 67% | 799.1 hPa | 0 mm | - | - | - |
| 1777515155 | 12.78° C | 67% | 799 hPa | 0 mm | - | - | - |
| 1777514537 | 13.33° C | 67% | 798.9 hPa | 0 mm | - | - | - |
| 1777513922 | 12.78° C | 67% | 798.9 hPa | 0 mm | - | - | - |
| 1777513305 | 13.33° C | 66% | 798.9 hPa | 0 mm | - | - | - |
| 1777512691 | 13.33° C | 66% | 798.8 hPa | 0 mm | - | - | - |
| 1777512075 | 13.89° C | 66% | 798.6 hPa | 0 mm | - | - | - |
| 1777511459 | 14.44° C | 66% | 798.5 hPa | 0 mm | - | - | - |
| 1777510841 | 15° C | 67% | 798.5 hPa | 0 mm | - | - | - |
| 1777510225 | 15.56° C | 67% | 798.4 hPa | 0 mm | - | - | - |
| 1777509609 | 15.56° C | 67% | 798.3 hPa | 0 mm | - | - | - |
| 1777508994 | 17.78° C | 69% | 798.3 hPa | 0 mm | - | - | - |
| 1777508378 | 15.56° C | 69% | 798.2 hPa | 0 mm | - | - | - |
| 1777507762 | 21.11° C | 69% | 798.1 hPa | 0 mm | - | - | - |
| 1777507145 | 16.67° C | 69% | 798.2 hPa | 0 mm | - | - | - |
| 1777506528 | 10.56° C | 70% | 798.3 hPa | 0 mm | - | - | - |
* Rain latest hour (hover to see other rain measurements)
** Current wind speed in m/s (hover to see current wind gust speed)